sat.trackr.live / text

‹ back to catalog

STARLINK-4151

NORAD 53034 · 2022-076BA

PAYLOAD ACTIVE UNKNOWN

§ Identity

Operator
Country
US
Launch date
2022-07-07
Launch site
AFETR
Launch vehicle
Mass (kg)
RCS (m²)

Purposes: comms

External: N2YO · Heavens-Above · Gunter

§ Orbital elements

Epoch: 2026-05-25T03:22:27.054624Z

Period
95.44 min
Inclination
53.2136°
Eccentricity
0.0001352
Mean motion
15.08836584 rev/d
Perigee alt
538.8 km
Apogee alt
540.7 km
Semi-major
6,917.9 km
B*
7.6296e-5
RAAN
90.9678°
Arg perigee
83.2605°
Mean anomaly
276.8541°
Rev number
21,466

§ Raw data

STARLINK-41511 53034U 22076BA  26145.14059091  .00000926  00000+0  76296-4 0  99992 53034  53.2136  90.9678 0001352  83.2605 276.8541 15.08836584214661

JSON: /api/v1/satellites/53034 · /tle

For live sub-satellite position, see the globe view (requires WebGL).

§ Visibility from observer

Set your observer location to see the next 7 days of passes ≥ 10°. The values pass through the URL so the page stays shareable.

No JS? Fill the form by hand. The geolocation button needs JavaScript.